Finales Départementales des Jeunes

Compétition Départementale

LENS

Le Dimanche 02 Juin 2013

Bassin de 50m

50 Brasse Dames

Séries

Nom Année Temps Pts Club Pays
1 REMY Adeline 2000 0:38:00 1044 STADE BÉTHUNE PÉLICAN CLUB FRA
2 DUHAMEL Cyrielle 2000 0:38:30 1030 SN LENS FRA
3 BATELLI Maeva 2000 0:40:63 926 SN LENS FRA
4 HAMILLE Lena 2001 0:41:12 905 US MONTREUIL-SUR-MER FRA
5 NOYELLE Margaux 2000 0:41:17 902 BERCK NATATION FRA
6 NOTEBAERT Elsa 2001 0:41:38 893 SN LENS FRA
7 LUCAS Rebecca 2000 0:41:67 881 CALAIS NATATION FRA
8 ROCHE-MATHON Leah 2001 0:41:74 878 RACING CLUB ARRAS FRA
9 THERY Celine 2000 0:41:79 876 ASL CANETONS LILLERS FRA
10 VANHOYE Célia 2000 0:42:41 850 STADE BÉTHUNE PÉLICAN CLUB FRA
11 VANDERZYPPE Jeanne 2000 0:43:31 812 BERCK NATATION FRA
12 CABO Amelie 2001 0:43:35 811 RACING CLUB ARRAS FRA
13 CASTELAN Leana 2001 0:43:60 801 BERCK NATATION FRA
14 TRENEL Maurine 2001 0:43:83 791 RACING CLUB ARRAS FRA
15 PILLE Emma 2000 0:43:96 786 RACING CLUB ARRAS FRA
16 DENUDT Juliette 2000 0:44:08 781 CALAIS NATATION FRA
17 DE PAOLI Fiona 2000 0:44:10 780 RACING CLUB ARRAS FRA
18 MARCINIAK Marie 2001 0:44:24 775 SN LENS FRA
19 CIURLIK Pauline 2000 0:44:28 773 DAUPHINS ST-OMER FRA
20 KONRAD Lory 2000 0:44:36 770 CN COURRIÈRES FRA
21 CADIOU Chloe 2000 0:44:38 769 STADE BÉTHUNE PÉLICAN CLUB FRA
22 KOUADIO PATINIER Lucie 2000 0:44:55 762 BERCK NATATION FRA
23 PROUST Zélie 2000 0:44:64 759 USO BRUAY-LA-BUISSIERE FRA
24 BERRABAH Myriem 2001 0:44:69 757 CN HÉNIN-BEAUMONT FRA
25 DARON Juliette 2002 0:44:95 747 STADE BÉTHUNE PÉLICAN CLUB FRA
26 FICHAUX Ambre 2001 0:45:31 733 RACING CLUB ARRAS FRA
27 COULPIER Chana 2001 0:45:31 733 BERCK NATATION FRA
28 DELATTRE Garance 2002 0:45:45 727 DAUPHINS ST-OMER FRA
29 NOSKOWIAK Mathilde 2001 0:45:50 725 US MONTREUIL-SUR-MER FRA
30 LEURS Chloe 2001 0:45:68 718 SN LENS FRA
31 CARNEZ Oceane 2002 0:45:80 714 CN DIVION FRA
32 WALLART Agathe 2000 0:45:84 712 SN LENS FRA
33 LEFEBVRE Sofia 2000 0:46:24 697 RACING CLUB ARRAS FRA
34 COUPIN Estelle 2001 0:46:27 696 CALAIS NATATION FRA
35 MEDJAHED Eliana 2000 0:46:30 695 HIPPO. MONTIGNY-EN-GOHELLE FRA
36 LANCEZ Emma 2001 0:46:49 687 RACING CLUB ARRAS FRA
37 JOLY Jennifer 2002 0:46:50 687 CN FREVENT FRA
38 CORION Florine 2000 0:46:56 685 CALAIS NATATION FRA
39 BERTELOOT Louise 2001 0:46:57 684 TRITONS LUMBRES FRA
40 WACKENS Capucine 2001 0:46:68 680 SN LENS FRA
41 TIRMARCHE Clémence 2001 0:46:72 679 STADE BÉTHUNE PÉLICAN CLUB FRA
42 BERDIN Emma 2000 0:46:72 679 CALAIS NATATION FRA
43 LORGNIER Bérénice 2001 0:46:88 673 TRITONS LUMBRES FRA
44 ROUSSEL Marie 2002 0:46:92 671 ENC ACHICOURT FRA
45 DELABRE Justine 2000 0:46:99 669 SN LENS FRA
46 GRAS Blandine 2001 0:47:13 664 CN DIVION FRA
47 CATEZ Oceane 2001 0:47:87 637 STADE BÉTHUNE PÉLICAN CLUB FRA
48 JOETS Clemence 2002 0:47:90 635 STADE BÉTHUNE PÉLICAN CLUB FRA
49 LENGLEN Julie 2000 0:47:97 633 CALAIS NATATION FRA
50 OLESINSKI Anaïs 2002 0:48:02 631 USO BRUAY-LA-BUISSIERE FRA
51 DECOONINCK Lea 2000 0:48:08 629 CN COURRIÈRES FRA
52 COLLIER Eva 2003 0:48:24 623 CALAIS NATATION FRA
53 RIBEIRO Léa 2001 0:48:45 616 DAUPHINS ST-OMER FRA
54 SERGENT Bulle 2000 0:48:50 614 DAUPHINS ST-OMER FRA
55 DELATTRE Lison 2000 0:48:94 598 DAUPHINS ST-OMER FRA
56 BRUTIER Clara 2000 0:49:03 595 CALAIS NATATION FRA
57 DECOUVELAERE Manon 2001 0:49:24 588 STADE BÉTHUNE PÉLICAN CLUB FRA
58 CAUCHARD Axelle 2002 0:49:25 587 ASL CANETONS LILLERS FRA
59 TEMPEZ Chloe 2003 0:49:45 581 CN FREVENT FRA
60 ZAJAC Margot 2001 0:49:50 579 STADE BÉTHUNE PÉLICAN CLUB FRA
61 VERHAMME Mallaury 2002 0:49:73 571 US MONTREUIL-SUR-MER FRA
62 GIVERN Maëva 2002 0:49:74 571 BERCK NATATION FRA
63 ABACHIN Apolline 2001 0:49:78 569 CALAIS NATATION FRA
64 DELPLANQUE Justine 2003 0:50:08 559 US MONTREUIL-SUR-MER FRA
65 LOVINY Margaux 2003 0:50:20 555 RACING CLUB ARRAS FRA
66 VILLAYES Olivia 2003 0:50:34 550 SN LENS FRA
67 MORTIER Philippine 2002 0:50:53 544 BERCK NATATION FRA
68 LUX Angéline 2001 0:50:79 535 CN COURRIÈRES FRA
69 MARTIN-GARRIN Yoline 2002 0:51:27 519 STADE BÉTHUNE PÉLICAN CLUB FRA
70 HENOCQ Charlotte 2001 0:51:39 515 RACING CLUB ARRAS FRA
71 NOWACZYK Lison 2003 0:51:40 515 AUCHEL NATATION FRA
72 VESIN Romane 2003 0:51:72 505 CN COURRIÈRES FRA
73 DELEMOTTE Marie 2003 0:51:89 499 ASL CANETONS LILLERS FRA
74 GHYS Chloé 2002 0:51:96 497 TRITONS LUMBRES FRA
75 VAUCHEL Emma 2000 0:52:00 496 DAUPHINS ST-OMER FRA
76 SZUMNY Chloe 2003 0:52:06 494 ASL CANETONS LILLERS FRA
77 PIJANOWSKI Alexia 2002 0:52:36 484 RACING CLUB ARRAS FRA
78 REBAÏ Ines 2002 0:52:52 479 CALAIS NATATION FRA
79 MARQUIS Faustine 2004 0:52:59 477 DAUPHINS ST-OMER FRA
80 WARNAULT Zoé 2002 0:52:87 468 CN FREVENT FRA
81 VIDELAINE Manuella 2002 0:52:89 468 ASL CANETONS LILLERS FRA
82 MATHUREL Valentine 2003 0:52:98 465 US MONTREUIL-SUR-MER FRA
83 DELPLANQUE Claire 2002 0:53:09 461 CN HÉNIN-BEAUMONT FRA
84 WAREMBOURG Eulalie 2002 0:53:25 457 RACING CLUB ARRAS FRA
85 DELAIRE Anaelle 2004 0:53:37 453 STADE BÉTHUNE PÉLICAN CLUB FRA
86 HOGUET Perrine 2004 0:53:61 446 CN FREVENT FRA
87 ARZUL Agathe 2002 0:53:67 444 RACING CLUB ARRAS FRA
88 DELANNOY Margot 2003 0:53:70 443 DAUPHINS ST-OMER FRA
89 CREPIN Léa 2002 0:54:06 432 BERCK NATATION FRA
90 LESMARIE Lara 2001 0:54:12 430 SN LENS FRA
91 OUKARACHE Lyna 2003 0:54:24 427 CALAIS NATATION FRA
92 MAGNIER Adele 2004 0:54:30 425 DAUPHINS ST-OMER FRA
93 QUEVAT Elise 2002 0:54:46 420 ASL CANETONS LILLERS FRA
94 RÉMY Capucine 2002 0:54:66 414 CN FREVENT FRA
95 DIDIER Maëlle 2003 0:54:74 412 RACING CLUB ARRAS FRA
96 SGARD LAVIEVILLE Justine 2002 0:54:86 408 CALAIS NATATION FRA
97 BOCAERT Camille 2004 0:55:08 402 US MONTREUIL-SUR-MER FRA
98 LENOIR Anaïs 2003 0:55:18 399 USO BRUAY-LA-BUISSIERE FRA
99 DELOUX Carla 2003 0:55:20 399 STADE BÉTHUNE PÉLICAN CLUB FRA
100 DEWYNTER Solene 2001 0:55:31 396 DAUPHINS ST-OMER FRA
101 BOROWSKI Léa 2003 0:55:35 394 CN DIVION FRA
102 QUEVA Joséphine 2003 0:55:76 383 US MONTREUIL-SUR-MER FRA
103 PERRAULT Emma 2003 0:55:87 380 US MONTREUIL-SUR-MER FRA
104 JASINSKI Anya 2003 0:55:98 377 STADE BÉTHUNE PÉLICAN CLUB FRA
105 MARINELLI Lucy 2002 0:56:17 371 DAUPHINS ST-OMER FRA
106 TARADEL Emilie 2002 0:56:64 358 HIPPO. MONTIGNY-EN-GOHELLE FRA
107 HERBAUT Zéline 2002 0:57:46 336 CALAIS NATATION FRA
108 LOUVET Héloïse 2003 0:58:01 322 CALAIS NATATION FRA
109 BAYARD Kristina 2003 0:58:42 312 DAUPHINS ST-OMER FRA
110 HAHAD Meriem 2003 0:58:45 311 BERCK NATATION FRA
111 LE LAY Alix 2005 0:58:88 300 RACING CLUB ARRAS FRA
112 HUCHIN Camille 2003 0:59:05 296 SC BOULOGNE-SUR-MER FRA
113 LUCAS Raphaëlle 2004 0:59:15 293 CALAIS NATATION FRA
114 COULPIER Taïna 2004 0:59:29 290 BERCK NATATION FRA
115 PAWLAK Ambre 2003 0:59:50 285 CN COURRIÈRES FRA
116 MORRESI Julie 2003 0:59:55 284 TRITONS LUMBRES FRA
117 SAULAY Baptistine 2003 1:00:38 264 RACING CLUB ARRAS FRA
118 DELEAU Meline 2003 1:00:55 260 SC BOULOGNE-SUR-MER FRA
119 LENCLOS Norah 2003 1:01:45 240 DAUPHINS ST-OMER FRA
120 SABRE Lucie 2002 1:02:15 224 SN LENS FRA
121 GUY Mylene 2004 1:02:36 220 SC BOULOGNE-SUR-MER FRA
122 BRIOUL Julie 2004 1:03:95 187 TRITONS LUMBRES FRA
123 LEDUCQ Annette 2004 1:04:61 175 SC BOULOGNE-SUR-MER FRA
124 RODRIGUEZ Juliette 2005 1:05:46 159 US MONTREUIL-SUR-MER FRA
125 SERDOBBEL Anaelle 2004 1:11:80 65 USO BRUAY-LA-BUISSIERE FRA
RACING CLUB ARRAS